Showing default

SJ-11-07, 40261

Orbit data source: Space-Track

SJ-11-07, 40261 is a payload satellite owned by CNSA (CN) in SSO that was launched on Sun, 28 Sep 2014 UTC via a CHANG ZHENG 2C launch vehicle from the Jiuquan Satellite Launch Center, China (JSC). Payload-class satellites include a variety of spacecraft equipped with specific instruments for various scientific and technological missions. These include communications satellites like Starlink; space stations such as the ISS; scientific satellites like the Hubble; Earth observation satellites from companies like Planet Labs, Umbra, and HawkEye 360; GPS; miniature CubeSats for education and research; and military/defense satellites.

Loading next visibility...
Identifier
40261, 2014-059A
Orbit
SSO
Country
Flag of CNCN / PRC
Related business
Manufacturer
DFH
Mission
Operational Defense Early Warn
Bus & Motor
CAST-2000?, Unknown motor
Mass
~300 kg wet, ~300 kg dry
Launch date (UTC)
2014-09-28 (12 years ago)
Launch vehicle
CHANG ZHENG 2C
Launch site
Jiuquan Satellite Launch Center, China (JSC)
Object type
Payload
Rocket body
Debris
Shape & HBR
Box + 2 Pan, 1.5 m
Radar Cross Section
2.045 m², Large (>1 m²)

Expand to show TLE details & history
Last TLE update: 23 hours ago

TLE from 23 hours ago
0 SJ-11-07
1 40261U 14059A   26172.47437248  .00000487  00000-0  10217-3 0  9992
2 40261  97.9935 241.6407 0011681 131.5702 228.6504 14.63742606625545
Epoch: 2026-06-21T11:23Z
TLE epoch observation values (Epoch: 2026-06-21T11:23:05.782Z)
Latitude
-0.00002°
Longitude
161.19249°
Altitude
689.566 km
Speed
7.509 km/s
True Right ascension
16h 06m 33s
True Declination
0° 00' 00"
Sunlit
Object was in full shadow at epoch
Visualization orbit readout
Latitude
Unknown
Longitude
Unknown
Altitude
Unknown
Speed
Unknown
Apparent Right ascension
Unknown
Apparent Declination
Unknown
Sunlit
N/A
Visualization observer readout
Local Sidereal Time
21:34:51
Azimuth
Unknown
Elevation
Unknown
Doppler factor
Unknown
Orbital elements
Apogee altitude
686.424 km
Perigee altitude
669.94 km
Semi-major axis
7,056.319 km
Eccentricity
0.00117
Inclination
97.9935°
RAAN
241.6407°
Arg. of periapsis
131.5702°
True anomaly
228.55001°
Mean anomaly
228.6504°
Eccentric anomaly
228.6002°
Mean motion
3.66164 °/min
Orbital period
98.32 mins
BSTAR
0.00010217
Loading maneuver chart data...
Computing Atmospheric mass density...
Loading historical data...
Loading historical data...
Loading historical data...
Loading historical data...
Loading historical data...
Loading historical data...
Loading historical data...
Other satellites on launch #59 in the year 2014 (2014-09-28 UTC)

Documentation

Showing up to 5 results
|